Wetbulb
37.84 32.67 26.55 30.82 33.81 33.28 32.08 30.58 27.27 30.39 35.25 34.11 33.29 34.84 35.57 35.87 35.97 37.72 38.27 38.05 39.42 40.57 43.78 44.68 45.33 45.76 46.30 46.99 47.44 48.79 49.30 50.10 52.68 58.38 60.89 61.33 60.53 61.65 61.56 61.54 61.13 60.40 59.77 58.67
32.95 30.64 34.61 35.99 35.30 33.90 31.70 27.51 26.59 30.75 34.36 35.49 34.01 31.63 33.73 34.73 35.35 38.48 38.80 38.44 39.42 40.30 41.40 42.52 43.09 43.83 44.23 44.81 45.67 47.20 48.64 49.92 51.85 55.04 60.63 61.45 61.36 61.46 61.89 61.48 61.18 60.86 59.93 59.10
28.83 32.36 36.33 34.07 32.05 31.48 28.96 25.78 22.72 28.53 32.40 35.85 31.20 26.00 28.27 32.82 35.35 37.64 39.49 39.94 39.87 39.72 39.83 40.81 41.65 42.05 43.02 43.18 43.93 45.61 47.50 49.47 51.38 52.97 55.53 60.00 60.13 60.84 60.41 60.06 59.95 60.30 60.04 59.53
30.97 34.26 33.10 30.89 30.67 31.36 27.73 32.20 31.17 30.74 28.64 20.85 29.12 17.44 19.57 27.78 31.79 34.40 35.30 37.18 37.25 39.35 39.71 40.09 40.54 40.86 41.85 42.68 43.82 44.86 47.01 48.79 50.66 52.62 53.54 57.69 56.02 57.22 58.23 59.30 59.38 59.72 59.93 59.59
29.00 31.15 29.90 29.66 30.85 32.51 28.95 34.43 31.75 29.86 28.58 30.87 22.89 15.97 20.26 27.48 26.66 30.93 33.88 34.92 35.84 37.44 38.53 38.77 39.25 40.29 41.96 42.55 43.00 44.04 46.33 48.67 49.42 51.07 52.96 57.54 57.00 56.60 58.74 58.82 58.52 58.47 58.14 59.17
31.72 35.26 32.70 31.48 33.30 33.12 33.89 31.47 30.07 29.64 28.46 17.02 18.00 18.41 18.55 20.08 26.03 29.71 33.01 33.11 33.78 35.75 36.54 38.07 39.34 39.78 40.12 41.69 42.45 43.12 44.49 46.74 48.67 48.74 50.09 50.72 52.47 54.18 51.46 51.98 51.75 51.79 52.60 53.20
29.50 30.92 33.59 34.15 29.60 32.51 32.06 26.42 14.95 13.24 13.21 17.22 23.53 20.76 22.89 26.98 31.39 32.50 32.15 30.98 32.16 33.36 34.76 36.60 37.18 37.69 38.46 39.30 40.61 41.88 43.54 43.88 46.62 47.54 47.94 49.27 49.51 49.65 49.58 49.78 50.16 50.37 50.55 50.96
24.17 21.72 30.67 33.49 29.88 27.65 29.44 27.22 17.89 12.13 14.01 17.31 25.74 19.92 24.72 30.76 32.69 34.04 30.95 29.71 31.58 31.69 32.92 34.77 36.58 37.02 37.32 38.12 39.22 40.23 41.72 42.77 44.08 45.97 46.49 47.48 48.49 48.87 48.82 49.13 49.55 49.60 49.62 49.93
25.12 25.01 31.94 32.48 32.82 31.46 28.12 25.02 28.86 24.13 17.49 19.05 20.83 25.19 29.11 31.21 29.44 28.76 28.35 28.99 29.27 30.65 31.16 32.31 34.44 35.26 36.15 36.80 37.58 38.63 39.91 41.27 42.71 43.51 44.62 45.13 46.24 46.44 46.85 47.80 48.50 48.38 49.22 49.27
30.13 24.25 29.36 31.34 33.60 32.67 29.68 31.83 23.56 21.92 9.95 11.19 17.85 22.26 23.46 28.54 29.28 29.17 27.21 27.16 28.71 29.57 30.71 31.73 32.56 33.75 35.00 35.91 36.77 37.92 38.91 39.52 40.66 41.85 42.44 42.55 42.93 43.65 44.13 44.62 44.61 45.21 45.93 46.38
31.11 26.98 25.10 29.67 28.33 27.61 28.91 27.61 27.78 26.11 24.29 18.12 16.08 19.27 27.53 28.90 30.91 29.15 27.66 28.76 29.11 29.18 30.30 30.77 32.02 32.77 33.39 34.61 35.27 36.08 37.14 38.09 38.87 40.01 40.36 40.44 40.46 40.70 41.13 41.22 41.72 42.04 42.52 42.70
31.75 27.75 20.59 24.18 27.73 29.99 28.42 27.56 27.84 21.16 18.50 22.16 22.98 21.04 30.37 29.53 31.42 30.16 27.98 29.32 29.52 29.81 30.24 30.25 31.01 31.50 31.82 32.44 33.40 34.17 35.38 36.60 37.10 38.24 39.09 39.09 39.26 39.01 38.64 38.52 39.23 40.07 39.53 39.94
31.85 20.91 11.73 18.98 25.00 28.07 28.03 29.46 29.97 27.95 26.87 22.00 18.60 20.16 29.71 28.93 27.90 28.24 27.70 28.10 29.59 28.99 28.62 30.07 30.35 30.39 30.53 31.09 31.90 32.47 33.65 34.41 35.94 36.96 37.50 37.90 38.01 37.62 37.07 37.23 37.54 37.82 38.01 37.54
34.78 25.34 22.50 19.55 23.32 25.96 25.72 27.60 29.39 28.14 20.94 22.18 23.46 21.98 26.68 27.75 27.36 26.69 27.04 28.17 28.31 29.19 29.67 29.35 29.47 29.70 30.02 30.85 30.75 31.51 32.27 33.31 34.30 35.20 35.83 35.99 36.17 36.46 36.55 36.52 36.05 36.18 36.09 36.25
31.39 19.68 23.01 25.99 26.86 27.73 27.57 27.12 27.83 27.20 27.49 22.31 21.80 24.11 27.35 29.68 28.66 27.91 27.66 28.05 28.27 29.12 29.06 28.90 29.13 29.42 29.48 30.14 30.66 31.14 31.50 32.17 32.71 33.06 33.81 33.87 34.93 35.87 36.22 35.95 35.56 35.23 35.08 34.84
29.76 18.53 21.45 16.97 23.47 24.21 22.54 26.28 26.95 27.92 29.08 28.20 28.65 28.17 30.97 30.66 28.39 26.58 28.39 28.21 28.03 28.90 29.32 29.53 30.12 30.22 30.19 30.16 30.25 31.27 30.73 30.99 31.54 31.38 31.35 32.42 33.16 33.54 33.83 34.39 34.48 34.54 34.11 33.89
28.10 20.70 14.10 12.67 17.70 16.11 17.88 20.09 24.28 25.63 26.65 28.80 25.26 29.60 30.79 28.72 28.97 28.70 28.65 29.43 29.54 29.67 29.63 29.73 30.25 30.31 29.95 29.97 30.79 30.32 30.38 30.65 30.35 30.23 30.15 30.37 31.04 31.09 31.47 32.39 32.61 32.37 32.27 32.52
23.51 17.19 10.37 10.26 10.68 11.74 26.40 23.48 24.84 25.47 26.65 29.57 29.84 29.11 30.64 31.75 32.56 33.32 30.94 30.72 30.08 30.28 29.89 30.12 30.09 29.76 30.11 29.83 30.11 30.41 30.12 29.76 29.77 29.53 29.52 29.71 29.83 29.71 29.94 30.32 30.45 30.30 30.30 30.31
27.69 23.16 8.93 11.05 4.31 19.05 24.99 22.06 22.46 22.97 24.65 28.06 29.31 31.50 29.35 29.28 28.83 29.95 31.25 31.97 32.63 32.28 31.84 31.76 31.30 30.57 29.96 29.45 29.74 29.66 29.19 29.27 29.37 29.22 29.07 28.86 29.05 29.22 29.08 29.00 28.82 28.78 29.01 29.06
26.13 24.86 18.81 1.79 6.15 11.18 25.07 23.93 25.53 25.94 20.18 26.89 28.43 29.46 27.96 29.01 25.62 29.21 30.48 31.65 30.98 31.29 31.96 31.28 30.95 30.51 29.60 28.98 29.53 29.27 28.75 28.54 28.49 28.82 28.78 28.56 28.88 28.54 27.95 27.99 28.22 28.52 28.13 28.98
23.25 17.00 12.12 2.87 6.33 14.45 25.44 25.74 26.19 19.45 27.16 26.18 27.00 27.91 28.77 28.94 31.27 31.61 30.60 30.10 31.96 32.26 31.21 30.77 30.18 30.57 29.55 29.26 29.39 28.83 28.34 28.53 29.00 28.76 28.09 27.22 27.27 28.00 27.64 27.67 27.60 28.04 28.12 28.31
23.02 19.94 17.58 7.25 6.57 13.72 25.68 24.54 23.90 28.49 26.36 27.86 27.15 27.67 30.05 30.01 30.37 30.02 29.59 28.98 30.26 30.36 30.21 30.70 30.05 29.75 29.06 29.16 29.12 28.74 28.13 28.83 27.30 26.15 25.56 22.91 21.87 25.44 26.87 24.49 25.02 25.19 27.03 26.18
21.62 23.75 20.03 21.82 22.82 28.35 29.09 27.48 28.64 27.73 28.24 27.92 28.73 29.05 30.32 29.59 29.26 29.29 28.59 28.73 30.08 30.47 30.91 30.40 30.37 28.87 28.20 28.41 28.42 27.77 27.87 26.53 23.24 18.45 17.02 17.41 18.95 22.74 23.25 23.93 23.50 22.75 23.75 23.40
22.69 25.12 21.94 23.42 29.25 27.76 27.54 29.37 27.03 28.30 28.77 29.07 30.07 30.47 30.08 29.50 29.85 29.41 28.65 28.84 29.40 29.74 30.19 29.21 28.27 27.66 27.32 26.74 26.91 26.75 25.88 22.65 16.19 14.74 15.54 16.54 18.35 20.03 19.38 22.30 23.86 22.57 22.75 25.02
23.44 25.99 23.03 22.65 27.79 27.00 28.44 29.68 31.85 30.53 28.48 28.83 29.12 30.48 30.89 29.94 29.48 29.53 28.58 28.97 30.05 30.14 28.71 28.99 28.63 27.87 27.30 24.43 22.50 18.29 20.29 16.29 15.33 14.66 15.48 17.01 17.17 16.82 18.06 20.10 20.38 22.28 25.02 28.71
24.55 24.82 25.74 25.72 29.96 32.07 31.75 31.83 32.60 30.71 28.85 30.24 28.55 28.66 29.83 30.38 30.33 29.04 28.58 29.60 29.65 28.50 26.37 26.12 25.72 25.30 24.37 22.99 20.95 15.79 14.86 16.62 16.80 16.86 16.82 16.48 16.83 15.28 16.77 17.28 18.42 27.66 29.73 30.96
MSLP
1018.92 1019.42 1020.01 1020.41 1020.58 1021.05 1021.73 1022.17 1022.34 1021.78 1021.19 1021.27 1021.29 1021.53 1021.64 1021.65 1021.34 1020.89 1020.35 1020.19 1020.13 1019.31 1018.53 1017.81 1017.28 1016.47 1015.65 1014.69 1013.65 1012.78 1012.01 1011.15 1010.59 1009.29 1008.46 1008.53 1008.81 1009.41 1009.86 1010.26 1010.51 1011.35 1011.93 1012.74
1019.39 1019.61 1019.89 1020.14 1020.50 1021.05 1021.74 1022.28 1022.41 1022.00 1021.73 1021.88 1021.81 1021.96 1022.05 1021.85 1021.50 1021.12 1021.01 1020.47 1020.03 1019.52 1018.80 1018.20 1017.28 1016.52 1015.78 1014.94 1013.98 1012.86 1012.00 1010.89 1010.27 1009.45 1008.17 1007.99 1008.29 1008.81 1009.30 1009.81 1010.08 1010.64 1011.45 1011.89
1019.42 1019.67 1019.60 1020.04 1020.59 1021.09 1021.70 1022.27 1022.48 1022.56 1022.24 1022.37 1022.75 1022.68 1022.62 1022.17 1021.85 1021.61 1021.31 1021.08 1020.61 1019.95 1019.45 1018.58 1017.66 1017.07 1016.10 1015.02 1014.16 1012.96 1011.88 1010.81 1010.07 1009.25 1008.61 1007.90 1008.25 1008.62 1008.84 1009.43 1009.93 1010.12 1010.80 1011.46
1019.62 1019.47 1019.57 1019.82 1020.31 1020.93 1021.44 1021.57 1022.04 1022.38 1022.73 1023.46 1023.74 1024.19 1023.29 1022.63 1022.29 1021.90 1021.50 1021.27 1021.06 1020.31 1019.84 1019.16 1018.42 1017.56 1016.72 1015.68 1014.65 1013.22 1011.89 1010.78 1009.76 1008.97 1008.39 1008.04 1007.90 1008.28 1008.31 1009.16 1009.69 1009.95 1010.53 1011.15
1019.89 1019.62 1019.54 1019.91 1020.08 1020.42 1021.04 1021.50 1022.00 1022.41 1022.99 1023.61 1024.34 1025.19 1022.99 1022.98 1022.58 1022.27 1021.79 1021.39 1021.11 1021.02 1020.40 1019.68 1019.10 1018.46 1017.58 1016.33 1014.76 1013.84 1012.38 1010.89 1009.58 1008.82 1008.20 1007.78 1007.98 1008.40 1008.58 1009.12 1010.07 1010.87 1010.52 1010.86
1019.92 1019.69 1019.74 1019.70 1019.96 1020.30 1020.78 1021.45 1022.19 1022.69 1023.44 1024.29 1024.43 1024.80 1023.34 1022.82 1022.39 1022.28 1022.09 1021.95 1021.47 1021.11 1020.78 1020.19 1019.68 1018.83 1018.10 1017.02 1015.66 1013.95 1012.61 1011.36 1010.20 1009.38 1008.88 1008.78 1008.72 1008.68 1009.08 1010.12 1011.15 1010.81 1011.42 1011.68
1020.08 1019.99 1019.83 1019.74 1020.03 1020.40 1020.91 1021.86 1022.90 1023.69 1024.10 1024.12 1023.98 1024.44 1022.21 1021.62 1021.47 1021.55 1022.02 1022.09 1021.95 1021.50 1021.20 1020.86 1020.19 1019.52 1018.78 1018.01 1016.84 1015.51 1013.98 1012.48 1011.68 1010.72 1010.42 1010.49 1010.16 1010.31 1010.42 1011.46 1012.06 1012.11 1012.28 1013.10
1020.39 1020.30 1019.95 1019.93 1020.17 1020.56 1021.29 1022.01 1023.22 1024.37 1024.83 1024.33 1023.80 1023.04 1021.10 1020.96 1020.93 1021.03 1021.51 1021.87 1022.03 1021.92 1021.49 1021.28 1020.72 1020.23 1019.69 1018.84 1017.91 1016.82 1015.57 1014.46 1013.38 1012.45 1011.93 1011.71 1011.65 1011.54 1011.28 1013.00 1012.56 1013.06 1013.77 1014.01
1020.51 1020.25 1020.08 1020.18 1020.31 1020.79 1021.44 1022.05 1022.65 1023.67 1024.82 1024.80 1022.86 1021.69 1020.62 1020.59 1020.96 1021.16 1021.46 1021.87 1021.93 1022.13 1021.81 1021.49 1021.19 1020.68 1020.12 1019.34 1018.69 1017.96 1016.94 1016.00 1014.99 1014.33 1014.06 1013.81 1013.25 1013.08 1013.73 1014.10 1013.99 1014.43 1014.61 1015.22
1020.25 1020.60 1020.61 1020.62 1020.72 1021.19 1021.27 1021.96 1022.79 1023.76 1024.53 1024.22 1022.34 1021.41 1020.25 1020.30 1020.54 1020.89 1021.37 1021.94 1022.08 1022.09 1022.16 1021.91 1021.45 1021.25 1020.72 1020.13 1019.46 1018.59 1017.98 1017.08 1016.31 1015.43 1014.97 1014.91 1015.23 1015.32 1015.48 1015.24 1015.08 1015.41 1015.59 1015.90
1020.43 1020.69 1021.57 1021.29 1021.28 1021.37 1021.87 1022.01 1022.66 1023.45 1023.92 1023.79 1023.03 1020.34 1018.59 1019.03 1019.47 1020.36 1021.12 1021.71 1022.07 1022.09 1022.17 1022.19 1021.95 1021.42 1021.09 1020.70 1019.85 1019.24 1018.70 1018.19 1017.54 1017.09 1016.84 1016.78 1016.91 1016.87 1016.58 1016.61 1016.76 1016.87 1017.06 1016.96
1020.62 1021.17 1021.82 1021.82 1021.80 1021.84 1021.74 1021.91 1022.35 1023.27 1023.55 1023.57 1022.97 1020.11 1018.28 1018.84 1019.20 1019.75 1020.68 1021.26 1021.76 1022.04 1022.20 1022.30 1022.15 1022.00 1021.63 1021.12 1020.75 1020.25 1019.76 1019.06 1018.88 1018.52 1018.32 1018.32 1018.10 1018.09 1018.06 1018.22 1018.16 1017.91 1017.80 1017.89
1020.69 1021.91 1022.41 1022.67 1022.72 1022.37 1022.18 1022.04 1022.23 1022.76 1022.97 1022.88 1022.56 1019.32 1018.74 1019.09 1019.79 1020.09 1020.52 1021.16 1021.73 1021.97 1022.21 1022.37 1022.23 1022.22 1021.98 1021.72 1021.26 1020.97 1020.69 1020.31 1019.84 1019.48 1019.24 1019.12 1019.16 1018.91 1019.05 1018.95 1018.79 1018.79 1018.72 1018.85
1020.69 1021.96 1022.37 1022.27 1022.04 1022.00 1022.22 1021.96 1022.01 1022.22 1022.68 1021.67 1020.18 1019.01 1018.82 1019.29 1019.92 1020.44 1020.81 1020.86 1021.41 1021.81 1022.01 1022.22 1022.39 1022.31 1022.51 1022.14 1022.06 1021.75 1021.40 1021.19 1020.94 1020.37 1020.04 1019.95 1019.95 1019.89 1019.91 1019.84 1019.79 1019.80 1019.95 1019.72
1021.47 1022.73 1023.17 1022.95 1022.61 1022.33 1021.80 1021.62 1021.64 1021.69 1020.91 1020.62 1018.67 1018.56 1018.64 1018.63 1019.03 1019.68 1020.20 1020.71 1021.12 1021.57 1021.82 1021.84 1022.12 1022.27 1022.36 1022.36 1022.35 1022.29 1021.99 1021.80 1021.58 1021.26 1020.91 1020.94 1021.00 1020.96 1020.89 1020.77 1020.62 1020.48 1020.42 1020.26
1021.99 1023.30 1024.14 1024.12 1023.34 1022.70 1021.82 1021.09 1020.78 1020.38 1020.16 1019.39 1018.78 1016.89 1017.44 1017.53 1018.41 1019.29 1019.64 1020.10 1020.76 1021.14 1021.41 1021.73 1022.10 1022.29 1022.12 1022.23 1022.78 1022.64 1022.63 1022.15 1022.09 1021.93 1022.08 1021.85 1021.59 1021.68 1021.70 1021.62 1021.45 1021.07 1021.18 1021.22
1022.56 1023.89 1025.41 1025.37 1024.36 1023.25 1021.33 1018.22 1018.64 1018.22 1017.66 1017.65 1017.88 1015.07 1015.89 1016.97 1017.64 1017.76 1018.43 1019.09 1019.66 1020.27 1020.77 1021.22 1021.51 1021.70 1022.07 1022.41 1022.80 1022.78 1022.88 1022.35 1022.64 1022.33 1022.47 1022.46 1022.30 1021.89 1022.09 1022.07 1021.80 1021.74 1021.81 1021.85
1022.67 1024.34 1025.55 1026.52 1025.70 1023.01 1017.79 1016.90 1016.69 1017.02 1015.99 1016.12 1015.33 1014.96 1015.06 1015.20 1015.72 1016.11 1016.89 1017.78 1018.67 1019.33 1020.09 1020.82 1021.20 1021.76 1022.15 1022.38 1022.31 1022.39 1022.73 1022.60 1022.90 1022.86 1022.86 1022.83 1022.97 1022.80 1022.46 1022.28 1022.23 1022.56 1022.59 1022.62
1022.18 1023.77 1026.21 1027.16 1025.90 1021.39 1016.83 1016.91 1016.58 1016.36 1014.17 1013.48 1013.84 1013.97 1014.72 1015.19 1015.36 1015.52 1015.72 1016.26 1017.01 1017.88 1018.80 1019.65 1020.54 1021.37 1021.78 1022.04 1022.20 1022.37 1022.72 1022.95 1023.06 1022.94 1023.16 1023.29 1023.00 1023.02 1022.70 1023.04 1023.13 1023.24 1023.41 1023.29
1022.52 1023.19 1024.66 1027.08 1025.46 1021.41 1016.58 1015.74 1015.51 1015.62 1014.07 1011.94 1012.74 1013.49 1014.47 1015.20 1015.43 1014.03 1014.58 1015.31 1016.35 1017.22 1018.22 1018.90 1019.98 1020.91 1021.59 1021.81 1022.14 1022.37 1022.78 1023.02 1023.05 1022.83 1023.21 1023.37 1023.15 1023.46 1023.41 1023.15 1023.26 1023.51 1023.54 1023.46
1022.73 1023.80 1024.42 1025.51 1024.17 1020.11 1015.62 1015.23 1015.51 1015.09 1012.59 1011.75 1012.22 1013.21 1013.96 1014.09 1013.36 1013.48 1013.63 1014.68 1015.44 1016.55 1017.88 1018.85 1019.62 1020.34 1020.98 1021.50 1022.11 1022.47 1022.53 1022.57 1022.72 1022.96 1023.13 1023.03 1023.03 1023.28 1023.15 1023.19 1023.59 1023.64 1023.86 1023.79
1019.63 1021.80 1023.04 1023.56 1022.91 1018.70 1014.17 1015.21 1014.48 1011.55 1011.28 1011.60 1011.95 1012.55 1013.25 1013.11 1013.29 1013.50 1013.83 1014.43 1015.23 1016.33 1017.61 1018.57 1019.59 1020.13 1020.84 1021.36 1021.88 1022.62 1022.71 1022.50 1022.90 1023.22 1023.35 1023.67 1023.84 1024.00 1023.93 1023.79 1023.88 1024.07 1024.19 1024.48
1017.83 1016.62 1018.05 1017.83 1015.72 1013.22 1012.32 1011.19 1011.20 1011.09 1011.12 1011.57 1011.47 1012.08 1012.83 1013.31 1013.43 1013.64 1013.89 1014.39 1014.95 1015.67 1016.92 1018.10 1018.96 1020.10 1020.60 1021.39 1021.62 1022.30 1022.56 1022.89 1023.40 1024.00 1024.51 1024.41 1024.40 1024.50 1024.48 1024.54 1024.59 1024.53 1024.33 1024.24
1015.93 1015.24 1015.53 1015.52 1012.07 1012.20 1011.84 1011.00 1011.11 1011.23 1010.92 1011.16 1011.35 1011.76 1012.41 1012.87 1013.20 1013.60 1014.11 1014.58 1015.22 1016.00 1016.59 1017.73 1019.05 1019.91 1020.60 1021.07 1021.63 1021.82 1022.41 1023.10 1023.83 1024.42 1024.72 1024.75 1024.94 1025.09 1025.03 1024.80 1024.51 1024.43 1024.39 1024.33
1013.21 1013.61 1013.84 1013.09 1010.92 1011.13 1010.52 1009.97 1009.60 1010.45 1010.79 1011.28 1011.30 1011.50 1011.98 1012.57 1012.98 1013.32 1013.97 1014.42 1014.67 1015.35 1016.18 1016.88 1018.09 1019.22 1020.01 1020.70 1021.57 1022.02 1022.32 1023.19 1024.28 1024.66 1024.94 1025.01 1025.26 1025.44 1025.21 1024.92 1024.79 1024.39 1024.42 1024.32
1011.27 1010.77 1011.07 1009.33 1007.98 1007.77 1007.42 1007.31 1008.22 1009.80 1009.98 1010.32 1010.91 1011.35 1011.61 1011.99 1012.34 1012.91 1013.56 1013.87 1014.40 1015.09 1015.83 1016.78 1017.57 1018.47 1019.39 1020.30 1021.22 1022.24 1022.61 1022.85 1023.89 1024.74 1025.17 1025.19 1025.51 1025.52 1025.35 1025.10 1024.90 1024.51 1024.35 1024.12
Wind_Speed
3 6 2 1 2 4 4 2 2 4 4 4 2 5 5 7 6 11 13 15 14 15 15 16 15 14 15 16 17 15 14 14 11 9 7 8 7 8 9 9 12 12 10 11
4 3 3 2 2 2 2 2 4 5 3 0 5 6 2 4 3 7 10 11 13 15 16 16 16 17 16 16 17 16 15 13 10 8 4 5 4 6 9 9 11 11 11 11
3 2 4 2 1 1 3 4 2 3 5 1 7 5 4 3 3 6 6 8 10 13 15 16 18 17 17 18 19 17 16 13 9 8 6 1 2 3 7 8 8 9 9 10
1 1 2 1 0 3 3 4 3 2 4 1 4 6 5 4 5 5 6 8 9 11 13 15 16 17 18 18 17 18 16 11 7 6 5 6 4 4 3 2 2 5 10 8
2 4 2 0 1 3 4 4 2 1 2 2 4 4 7 4 4 6 7 7 8 7 9 13 16 15 15 16 16 16 16 10 11 10 7 1 6 3 4 5 4 6 6 7
2 1 2 3 1 2 1 0 4 3 2 2 4 5 7 2 5 4 4 7 7 9 10 11 12 13 14 15 16 18 19 16 16 17 16 13 9 11 12 11 9 10 9 8
1 1 1 2 1 1 3 4 4 7 5 6 3 2 10 5 5 4 3 6 8 7 8 11 13 14 14 15 17 16 18 20 17 19 18 15 16 18 18 13 10 12 11 10
5 4 4 2 1 2 2 3 5 5 2 6 1 5 6 5 4 4 2 2 5 7 6 7 10 11 11 13 14 15 16 15 17 18 19 17 16 12 15 11 12 12 10 10
4 1 1 2 2 2 2 2 2 4 2 2 4 6 5 4 4 3 3 0 4 6 7 7 8 8 10 10 11 11 13 12 14 16 15 16 16 17 14 13 13 10 10 9
4 3 0 1 2 3 1 4 3 3 1 5 5 5 6 6 9 6 5 5 3 3 5 6 6 7 7 8 9 11 12 12 13 13 14 14 14 13 12 11 14 12 11 11
4 2 1 2 4 7 2 1 2 2 4 3 4 7 6 8 10 10 8 6 5 3 3 5 6 6 6 6 9 10 10 11 13 12 11 11 10 10 11 11 9 9 9 9
3 4 4 3 1 2 1 5 5 4 4 3 1 10 1 4 8 9 8 7 5 4 3 3 4 5 6 7 7 8 9 10 9 8 9 9 10 9 10 9 8 8 10 10
7 1 3 7 5 3 4 4 4 3 2 6 5 8 2 4 4 6 8 7 5 4 3 3 3 4 5 6 7 7 7 7 7 7 8 9 9 9 9 9 9 9 10 10
5 2 4 6 4 4 4 4 6 6 3 4 9 4 4 6 7 6 7 6 7 6 6 3 3 2 3 5 5 6 7 6 6 6 8 9 8 7 6 6 8 8 6 8
4 5 2 4 5 3 5 6 8 14 10 9 2 9 6 9 11 10 7 6 7 7 6 5 3 3 2 4 5 5 5 6 5 7 8 7 6 6 6 6 6 6 7 7
2 2 2 4 2 3 6 12 13 15 16 18 17 30 11 6 4 9 12 9 8 8 8 8 7 5 1 2 2 2 3 6 4 6 6 5 6 6 6 6 5 7 7 7
7 7 4 6 4 6 10 13 20 9 8 15 17 14 7 7 9 11 13 14 13 10 9 8 8 6 4 4 4 3 2 4 5 6 5 6 6 7 6 6 6 7 7 6
7 6 3 3 4 2 6 3 6 17 12 19 16 9 8 9 11 9 9 16 14 11 10 9 7 6 7 4 4 4 2 3 4 4 5 5 5 5 4 5 6 6 5 5
2 6 3 5 4 9 5 6 8 9 10 20 24 20 8 3 3 7 10 12 18 17 11 10 9 7 6 7 6 6 4 3 4 4 3 3 4 5 5 5 4 3 4 4
5 4 5 3 5 9 5 4 5 3 8 6 14 15 9 8 5 7 11 12 10 12 12 10 9 7 8 7 6 7 6 5 4 4 2 1 3 2 2 3 4 2 3 4
5 1 6 3 4 12 11 6 6 7 8 5 7 7 12 10 7 2 8 9 12 13 13 9 9 9 9 7 7 6 6 6 4 3 2 2 3 3 4 4 3 4 3 3
13 11 6 4 2 14 10 7 10 7 1 4 5 6 12 7 6 5 7 9 14 14 11 11 10 8 7 7 8 6 6 4 4 2 2 3 4 3 2 3 3 2 2 3
7 11 11 14 13 1 18 5 8 3 5 5 5 6 8 8 8 7 8 10 12 14 13 10 11 8 7 6 7 8 5 6 5 4 2 1 2 3 2 2 1 1 3 2
5 4 4 4 10 17 12 13 6 7 6 4 3 6 8 8 9 8 6 7 9 10 12 9 9 9 8 7 7 7 7 6 6 4 3 2 4 2 1 1 2 2 3 3
6 14 9 6 11 4 12 15 16 15 8 6 5 7 8 8 7 8 8 9 11 12 9 12 12 11 11 8 6 3 7 7 4 3 3 3 3 1 1 2 1 2 1 1
7 10 10 11 8 8 6 12 17 15 14 18 10 7 6 8 9 8 8 9 11 11 8 8 9 8 8 8 8 5 4 8 8 5 4 3 3 2 2 2 2 4 2 4
Wind_Direction
356 71 103 177 70 121 129 168 238 265 286 348 293 294 309 342 11 12 5 360 349 346 342 349 338 341 338 336 334 327 318 311 295 269 224 216 213 196 188 192 192 190 198 189
27 92 175 140 122 123 132 100 283 285 277 225 323 298 294 329 358 28 13 357 352 345 346 345 345 347 343 338 335 332 321 317 301 297 239 214 185 205 197 198 181 188 191 197
119 118 125 82 31 172 181 166 231 241 333 10 332 311 324 285 359 18 15 13 355 353 342 345 349 344 344 348 337 332 325 318 304 299 289 129 109 199 191 193 179 181 199 208
147 23 133 90 185 133 314 195 168 293 32 281 52 284 299 312 317 346 358 1 335 353 351 341 342 346 349 341 339 334 328 324 318 307 270 217 174 176 147 188 179 172 188 172
198 159 151 93 240 164 235 162 209 264 210 55 301 76 265 341 328 322 328 353 319 333 335 336 338 338 340 345 343 338 339 351 15 31 12 237 184 126 69 90 96 120 84 90
210 282 173 179 164 187 347 92 39 44 67 12 237 122 281 220 215 294 321 336 335 331 345 343 341 342 342 343 349 349 350 9 25 39 41 40 62 96 86 73 81 66 66 64
68 236 266 161 107 84 77 59 335 351 8 230 157 61 245 220 213 203 308 328 329 335 351 342 350 345 346 345 345 347 0 12 18 40 45 49 67 76 76 83 83 82 72 63
159 314 176 177 159 155 88 138 151 244 275 286 109 229 256 201 160 167 134 301 333 350 344 336 345 341 343 346 348 351 354 16 20 32 39 42 53 68 70 62 85 69 73 71
143 261 81 71 124 131 159 138 164 107 32 358 244 282 288 157 211 185 186 306 328 333 334 337 343 336 339 347 347 349 352 6 33 38 40 40 44 49 61 61 70 69 70 79
215 121 358 139 103 21 155 153 66 4 29 289 284 272 240 214 220 215 225 213 258 309 333 341 344 341 345 343 345 5 1 8 16 36 41 39 38 42 54 60 59 54 52 58
152 102 217 109 201 181 127 187 94 145 161 214 301 263 215 208 194 194 208 203 202 234 307 327 343 349 344 350 8 5 11 18 24 27 34 47 49 50 53 56 57 62 69 71
195 140 182 174 116 329 211 206 156 135 231 246 143 273 318 224 193 170 189 196 189 191 244 309 343 348 355 4 11 19 7 25 23 20 41 41 40 45 54 52 53 61 60 55
179 282 45 350 6 4 225 198 166 112 95 212 156 261 38 101 163 199 179 196 192 194 205 304 346 5 14 12 9 19 20 19 19 32 40 44 44 49 49 48 51 50 58 56
109 123 187 183 158 137 205 208 195 168 168 202 232 260 266 224 195 218 215 187 196 201 207 207 280 350 33 28 28 15 26 16 12 32 53 49 38 39 47 52 49 57 57 71
128 190 158 245 230 211 218 216 199 214 213 197 239 223 216 225 207 202 205 188 186 204 210 209 216 246 323 62 40 31 38 30 19 35 45 49 37 36 43 47 51 52 52 58
159 206 108 301 10 227 248 236 232 233 234 256 266 275 204 202 154 159 196 194 196 202 203 198 203 215 212 95 95 78 57 59 35 65 47 38 57 54 45 40 47 54 48 50
148 135 105 262 342 321 295 218 209 214 201 217 231 234 162 170 195 203 195 190 197 197 197 194 201 199 192 195 167 139 123 99 68 66 49 40 38 51 42 39 43 39 40 39
133 107 81 217 13 287 241 178 166 213 238 219 249 227 203 191 211 208 195 184 191 192 189 192 186 190 199 190 172 131 133 98 105 87 68 49 40 55 54 54 44 31 21 26
123 126 100 143 204 298 263 191 172 177 271 217 226 240 214 156 95 251 190 190 188 188 187 188 174 169 183 182 170 149 145 139 130 102 80 55 50 42 45 50 42 30 22 29
101 64 127 111 168 213 230 179 173 151 290 213 199 230 167 140 203 238 184 182 171 166 172 170 166 158 161 188 175 157 170 170 174 142 132 102 78 83 60 49 43 44 29 18
137 64 165 163 233 287 236 147 157 89 237 162 176 184 163 195 200 213 145 164 172 165 165 154 159 172 181 166 167 181 175 192 175 165 164 91 62 45 34 28 29 26 16 20
163 156 179 113 114 268 148 75 183 208 167 172 170 184 195 202 173 187 174 159 155 158 152 160 163 174 178 169 157 184 203 170 148 162 111 52 29 13 30 61 29 23 58 92
198 181 178 189 206 241 194 188 211 182 158 205 173 186 187 179 195 185 180 167 169 164 161 163 165 163 172 187 175 177 208 156 145 116 110 65 50 37 13 111 104 112 52 65
243 161 189 126 241 224 224 244 251 215 204 193 189 171 176 190 192 192 180 169 163 162 164 155 148 167 184 190 196 190 162 149 138 133 140 108 86 17 354 51 40 66 51 41
190 147 167 264 261 319 237 226 230 224 210 223 203 190 205 189 197 186 184 182 179 172 158 161 172 179 194 174 190 181 144 134 134 130 154 127 125 186 65 75 116 83 255 69
192 168 177 216 189 186 224 207 213 212 209 212 190 199 212 189 194 179 192 188 175 172 153 162 172 171 182 174 173 171 173 159 154 162 176 157 155 136 84 70 35 3 71 88